User: anonymous   Login
Location: D.A.R.C. Observatory
(36.7133°N, 120.8553°W)
Time: 16:14:14
(UTC-08:00)
Language:

USA 215 - Orbit

View from above orbital plane
View from above orbital plane
View from above satellite
View from above satellite

Ground track
Ground track

The orbit data is extracted from the following two-line orbital elements,

1 37162U 10046A   17321.23420177 0.00000000  00000-0  00000-0 0    03
2 37162 123.0003 290.4259 0005000 139.9498 220.0502 13.41422063    06
Epoch (UTC): 17 November 2017 05:37:15
Eccentricity: 0.0005000
inclination: 123.0003°
perigee height: 1100 km
apogee height: 1108 km
right ascension of ascending node: 290.4259°
argument of perigee: 139.9498°
revolutions per day: 13.41422063
mean anomaly at epoch: 220.0502°
orbit number at epoch: 0

The dashed part of the orbit path shows where the satellite is in the earth's shadow,  

DLR